Regional Weather Roundup
Issued by NWS Jackson, KY

Home | Current Version | Previous Version | Graphics & Text | Print | Product List | Glossary On
Versions: 1 2 3 4 5 6 7 8 9 10 11 12 13 14 15 16 17 18 19 20 21 22 23 24 25 26 27 28 29 30 31 32 33 34 35 36 37 38 39 40 41 42 43 44 45 46 47 48 49 50
000
ASUS43 KJKL 082010
RWRJKL

EAST KENTUCKY HOURLY WEATHER ROUNDUP
NATIONAL WEATHER SERVICE JACKSON KY
300 PM EST THU DEC 08 2016

NOTE: "FAIR" INDICATES FEW OR NO CLOUDS BELOW 12,000 FEET WITH
NO SIGNIFICANT WEATHER AND/OR OBSTRUCTIONS TO VISIBILITY.

* THESE REPORTS ARE NOT UNDER NWS QUALITY CONTROL AND MAY NOT
  REPORT WEATHER SUCH AS PRECIPITATION AND FOG.

KYZ079-080-083-085-087-088-110-112-115-119-120-082100
...EASTERN KENTUCKY...

CITY           SKY/WX    TMP DP  RH WIND       PRES   REMARKS
JACKSON        SUNNY     35  18  49 W14G21    30.25R WCI  26
LONDON         SUNNY     36  17  46 NW13      30.29R WCI  27
SOMERSET*      SUNNY     34  16  47 NW10      30.34S WCI  26
MONTICELLO*    CLOUDY    36  18  48 NW12      30.35R WCI  28
MIDDLESBORO*   SUNNY     41  19  40 NW10G17   30.27F
HARLAN APT*    PTCLDY    37  14  38 SW6       30.24S WCI  33
PIKE CO APT*     N/A     37  18  47 W12G17    30.21R WCI  29
BIG SANDY APT* CLEAR     37  16  41 W12G20    30.23R WCI  30
MOREHEAD APT*  PTCLDY    34  14  44 VRB7G16   30.29R WCI  28
ASHLAND*       SUNNY     37  18  44 NW9G17    30.25R WCI  31
$$

KYZ035-036-041-042-044-050-067-078-099-082100
...CENTRAL KENTUCKY...

CITY           SKY/WX    TMP DP  RH WIND       PRES   REMARKS
MT STERLING*   MOSUNNY   34  19  55 NW8G20    30.31R WCI  27
FLEMING/MASON* SUNNY     33  14  46 W14       30.28R WCI  23
DANVILLE*      SUNNY     32  16  51 W9        30.33R WCI  24
LEXINGTON      SUNNY     34  16  47 W12       30.31R WCI  25
FRANKFORT      SUNNY     35  13  40 W13G21    30.31R WCI  26
LEBANON*         N/A     32  16  51 W8G16     30.35R WCI  25
GLASGOW*       SUNNY     35  19  52 W10       30.38S WCI  27
BOWLING GREEN  SUNNY     36  14  40 W14       30.41S WCI  27
$$

KYZ091>093-OHZ055-061-077-WVZ005-015-034-035-042-082100
...SOUTHERN OHIO/WEST VIRGINIA...

CITY           SKY/WX    TMP DP  RH WIND       PRES   REMARKS
COVINGTON      MOSUNNY   32  16  51 W18G26    30.29R WCI  20
COLUMBUS       FLURRIES  25  16  68 W16       30.25R WCI  12
WILMINGTON     CLOUDY    25  15  66 NW15G23   30.26R WCI  13
HUNTINGTON     SUNNY     36  15  42 W13G21    30.24R WCI  27
CHARLESTON     MOSUNNY   37  16  42 W14G24    30.19R WCI  28
BECKLEY        SUNNY     32  13  45 W12       30.10R WCI  23
BLUEFIELD      SUNNY     31  10  41 NW15G28   30.10R WCI  20
LOGAN CO APT*    N/A     37  16  41 W12       30.17R WCI  30
$$

VAZ002-007-008-TNZ017-027-036-066-071-082100
...SOUTHWEST VIRGINIA/EAST TENNESSEE...

CITY           SKY/WX    TMP DP  RH WIND       PRES   REMARKS
WISE*          MOSUNNY   32  16  51 W15G21    30.17R WCI  22
ABINGDON*      SUNNY     42  11  27 NW14G25   30.15S
BRISTOL        MOSUNNY   43  15  32 W16       30.19S
MORRISTOWN*    CLEAR     41  14  33 NW15G23   30.24R
SEVIERVILLE*   CLEAR     43  14  31 W10       30.26S
KNOXVILLE      PTSUNNY   43  17  35 W13       30.27F
OAK RIDGE      SUNNY     44  14  29 W6        30.29F
CROSSVILLE     SUNNY     37  15  40 NW10G20   30.28S WCI  30
NASHVILLE      PTSUNNY   39  11  31 NW16      30.40S WCI  30
$$

...KEY TO REMARKS...
VSB - VISIBILITY IN MILES
WCI - WIND CHILL INDEX
HX  - HEAT INDEX

$$



USA.gov is the U.S. government's official web portal to all federal, state and local government web resources and services.